FENGYUN 1C DEB, 30350

Orbit data source: Space-Track

FENGYUN 1C DEB, 30350 is space debris in SSO originally from a launch on Mon, 10 May 1999 UTC launched from the Taiyaun Space Center, China (TSC). Fengyun 1C debris stems from the Chinese weather satellite Fengyun-1C, which was intentionally destroyed by a Chinese anti-satellite missile in 2007. This event dramatically increased the amount of space debris, with thousands of trackable fragments posing hazards to satellites and human spaceflight. The Fengyun 1C debris cloud has become a focal point in discussions about space sustainability and the need for international regulations to prevent the creation of new debris.

Loading next visibility...
Identifier
30350, 1999-025ABM
Orbit
SSO
Country
Flag of CNCN / PRC
Related business
Manufacturer
Unknown
Mission
Spacecraft
Bus & Motor
Unknown
Mass
Unknown
Launch date (UTC)
1999-05-10 (27 years ago)
Launch vehicle
Unknown
Launch site
Taiyaun Space Center, China (TSC)
Object type
Payload
Rocket body
Debris
Shape & HBR
Unknown shape, 0.1 m
Radar Cross Section
Medium (>0.1 m² and <1 m²)

Expand to show TLE details & history
Last TLE update: 1 day ago

TLE from 1 day ago
0 FENGYUN 1C DEB
1 30350U 99025ABM 26149.37335022  .00001134  00000-0  88818-3 0  9998
2 30350  98.1115 309.6524 0218586 205.8920 183.4336 13.83171134972999
Epoch: 2026-05-29T08:57Z
TLE epoch observation values (Epoch: 2026-05-29T08:57:37.459Z)
Latitude
28.90408°
Longitude
-76.14871°
Altitude
1,116.212 km
Speed
7.217 km/s
True Right ascension
20h 20m 38s
True Declination
28° 45' 57"
Sunlit
Object was in daylight at epoch
Visualization orbit readout
Latitude
Unknown
Longitude
Unknown
Altitude
Unknown
Speed
Unknown
Apparent Right ascension
Unknown
Apparent Declination
Unknown
Sunlit
N/A
Visualization observer readout
Local Sidereal Time
21:58:27
Azimuth
Unknown
Elevation
Unknown
Doppler factor
Unknown
Orbital elements
Apogee altitude
1,110.019 km
Perigee altitude
789.66 km
Semi-major axis
7,327.976 km
Eccentricity
0.02186
Inclination
98.1115°
RAAN
309.6524°
Arg. of periapsis
205.892°
True anomaly
183.28757°
Mean anomaly
183.4336°
Eccentric anomaly
183.36019°
Mean motion
3.45993 °/min
Orbital period
104.05 mins
BSTAR
0.00088818
Loading maneuver chart data...
Computing Atmospheric mass density...
Loading historical data...
Loading historical data...
Loading historical data...
Loading historical data...
Loading historical data...
Loading historical data...
Loading historical data...

Documentation

Showing up to 5 results
|